{"data":{"norad_id":58111,"intl_designator":"2023-161Q","name":"STARLINK-30595","alt_names":[],"object_type":"PAYLOAD","status":"ACTIVE","operator":null,"country":"US","launch_date":"2023-10-21","launch_site_code":"AFWTR","launch_vehicle":null,"mission":null,"orbit_class":"UNKNOWN","rcs_meters":null,"size_class":null,"mass_kg":null,"dimensions":null,"purposes":["comms"],"wikipedia_slug":null,"has_3d_model":false,"image_url":null,"decayed_at":null,"tle_current":{"epoch":"2026-09-20T22:10:47.586432Z","epoch_age_seconds":103829,"freshness":"FRESH","line1":"1 58111U 23161Q   26263.92416188 -.00000764  00000+0 -11495-4 0  9999","line2":"2 58111  53.1601 337.9313 0000848  94.9852 265.1247 15.34395114164329","mean_motion":15.34395114,"eccentricity":8.48e-5,"inclination_deg":53.1601,"raan_deg":337.9313,"arg_perigee_deg":94.9852,"mean_anomaly_deg":265.1247,"bstar":-1.1495e-5,"rev_number":16432,"period_min":93.848056922319,"perigee_km":462.13765798346,"apogee_km":463.29786695118,"semimajor_km":6840.8547624673,"source":"CELESTRAK","updated_at":"2026-09-21T09:00:33.788938Z"}}}